Weather History for Rogers, AR

Change the Weather History Date:

Sunday, April 7, 2013

  Actual Average Record
Temperature  
Mean Temperature 64 °F -  
Max Temperature 75 °F 62 °F 77 °F (2001)
Min Temperature 54 °F 43 °F 23 °F (2007)
Growing Degree Days 14 (Base 50)    
Moisture  
Dew Point 53 °F    
Average Humidity 66    
Maximum Humidity 86    
Minimum Humidity 51    
Precipitation  
Precipitation 0.00 in - - ()
Sea Level Pressure  
Sea Level Pressure 29.84 in    
Wind  
Wind Speed 10 mph (South)    
Max Wind Speed 22 mph    
Max Gust Speed 30 mph    
Visibility 10 miles    
Events      
Averages and records for this station are not official NWS values.
T = Trace of Precipitation, MM = Missing Value Source: NWS Daily Summary

Daily Weather History Graph

Daily Weather History Graph

Search for Another Location

Airport:

Trip Planner

Search our weather history database for the weather conditions in past years. The results will help you decide how hot, cold, wet, or windy it might be!

Date:

Astronomy

Apr. 07, 2013 Rise Set
Actual Time 6:53 AM CDT 7:43 PM CDT
Civil Twilight 6:27 AM CDT 8:10 PM CDT
Nautical Twilight 5:56 AM CDT 8:41 PM CDT
Astronomical Twilight 5:24 AM CDT 9:13 PM CDT
Moon 5:07 AM CDT (4/7) 5:20 PM CDT (4/7)
Length of Visible Light 13h 42m
Length of Day
12h 50m
Waning Crescent, 8% of the Moon is Illuminated
Apr 7
Waning Crescent
Apr 10
New
Apr 18
First Quarter
Apr 25
Full
May 2
Last Quarter

Hourly Weather History & Observations

Time (CDT) Temp. Dew Point Humidity Pressure Visibility Wind Dir Wind Speed Gust Speed Precip Events Conditions
12:57 AM 61.0 °F 48.0 °F 62% 29.88 in 10.0 mi SSW 9.2 mph - N/A   Scattered Clouds
1:57 AM 57.9 °F 48.0 °F 70% 29.88 in 10.0 mi SSW 6.9 mph - N/A   Clear
2:57 AM 57.9 °F 48.9 °F 72% 29.87 in 10.0 mi SSW 8.1 mph - N/A   Clear
3:57 AM 57.9 °F 50.0 °F 75% 29.87 in 10.0 mi SSW 8.1 mph - N/A   Partly Cloudy
4:57 AM 57.0 °F 50.0 °F 77% 29.88 in 10.0 mi SSW 8.1 mph - N/A   Scattered Clouds
5:57 AM 55.0 °F 50.0 °F 83% 29.88 in 10.0 mi South 5.8 mph - N/A   Clear
6:57 AM 54.0 °F 50.0 °F 86% 29.90 in 10.0 mi SSE 6.9 mph - N/A   Clear
7:57 AM 57.0 °F 52.0 °F 83% 29.92 in 10.0 mi SSE 6.9 mph - N/A   Clear
8:57 AM 64.0 °F 55.0 °F 73% 29.92 in 10.0 mi South 10.4 mph - N/A   Partly Cloudy
9:57 AM 66.0 °F 55.0 °F 68% 29.91 in 10.0 mi South 12.7 mph 21.9 mph N/A   Partly Cloudy
10:57 AM 69.1 °F 55.9 °F 63% 29.92 in 8.0 mi South 12.7 mph - N/A   Scattered Clouds
11:57 AM 72.0 °F 55.9 °F 57% 29.90 in 10.0 mi South 13.8 mph 17.3 mph N/A   Scattered Clouds
12:57 PM 73.0 °F 55.9 °F 55% 29.87 in 10.0 mi Variable 5.8 mph - N/A   Scattered Clouds
1:57 PM 73.9 °F 55.0 °F 52% 29.84 in 10.0 mi South 18.4 mph 25.3 mph N/A   Mostly Cloudy
2:57 PM 73.9 °F 55.0 °F 52% 29.82 in 10.0 mi South 15.0 mph - N/A   Overcast
3:57 PM 75.0 °F 55.9 °F 51% 29.79 in 10.0 mi South 18.4 mph 25.3 mph N/A   Mostly Cloudy
4:57 PM 73.0 °F 55.0 °F 53% 29.77 in 10.0 mi South 19.6 mph 25.3 mph N/A   Partly Cloudy
5:57 PM 70.0 °F 55.0 °F 59% 29.77 in 10.0 mi South 18.4 mph 24.2 mph N/A   Overcast
6:57 PM 68.0 °F 55.9 °F 65% 29.78 in 10.0 mi South 21.9 mph 29.9 mph N/A   Overcast
7:57 PM 66.0 °F 54.0 °F 65% 29.76 in 10.0 mi SSE 15.0 mph 19.6 mph N/A   Scattered Clouds
8:57 PM 64.9 °F 53.1 °F 65% 29.76 in 10.0 mi SE 11.5 mph - N/A   Partly Cloudy
9:57 PM 64.9 °F 53.1 °F 65% 29.79 in 10.0 mi SSE 8.1 mph - N/A   Overcast
10:57 PM 64.9 °F 54.0 °F 68% 29.81 in 10.0 mi South 12.7 mph - N/A   Overcast
11:57 PM 64.9 °F 54.0 °F 68% 29.79 in 10.0 mi South 10.4 mph - N/A   Overcast